Tracking 18844 objects as of 21-Nov-2017
HD Live streaming from Space Station
objects crossing your sky now

COSMOS 1622

Track COSMOS 1622 now!
10-day predictions
COSMOS 1622 is classified as:


NORAD ID: 15474
Int'l Code: 1985-003F
Perigee: 1,406.6 km
Apogee: 1,422.4 km
Inclination: 82.6 °
Period: 113.9 minutes
Semi major axis: 7785 km
RCS: 0.137 m2 (medium)
Launch date: January 15, 1985
Source: Commonwealth of Independent States (former USSR) (CIS)
Launch site: PLESETSK MISSILE AND SPACE COMPLEX (PKMTR)
aabbcc
Your satellite tracking list
Your tracking list is empty




NASA's NSSDC Master Catalog

Two Line Element Set (TLE):
1 15474U 85003F   17324.94359972 -.00000001 +00000-0 -61865-4 0  9995
2 15474 082.6066 279.5502 0010153 090.7423 333.5740 12.63793583515188
Source of the keplerian elements: AFSPC